STARLINK-34018

Satellite information

Favourite Embed

Satellite Type and Status

PAYLOADIN ORBIT

Key statistics

Satellite STARLINK-34018 at a glance.

Uptime

220

Days in orbit

Revolutions

≈ 15.3

Per day

Orbit

LEO

Low Earth Orbit

Inclination

43.0

Latest

Satellite identification and parameters

Extended collection of information and parameters for STARLINK-34018.

Object identification

Identified? True

Debris? False

Object name: STARLINK-34018

International designator: 2025-093A

Object number (NORAD): 63836

Object ID (CCSDS): 63836

Country: UNITED STATES OF AMERICA (US)

Current information (Y/N): Y

RCS size: LARGE

Orbital parameters

Period: 94.265 minutes

Inclination: 43.0003 deg

SMA: 6861.114 km

Apoapsis: 483.866 km

Periapsis: 482.093 km

RAAN: 213.1172 deg

Eccentricy: 0.00012919

Argument of periapsis: 270.0214 deg

Mean anomaly: 90.049 deg

Mean motion: 15.27603951 rev/day

Mean motion (dot): 0.00035987 rev/day2

B* drag term: 0.0013099303 1/REarth

Two-line elements (TLE)

Creation date: Dec. 12, 2025, 10:14 a.m.

Reference frame: TEME

Reference center: EARTH

Epoch: Dec. 12, 2025, 12:36 a.m. UTC

TLE line 0: 0 STARLINK-34018

TLE line 1: 1 63836U 25093A 25346.02563077 .00035987 00000-0 13099-2 0 9991

TLE line 2: 2 63836 43.0003 213.1172 0001292 270.0214 90.0490 15.27603951 34564

Live tracking on map

Real-time ground track for satellite STARLINK-34018.

In-orbit conjunctions

There are no conjunctions computed for STARLINK-34018, at the moment. Check back to stay up to date, as we update our databases every day.

Go to all conjunctions

Associated space launch

A batch of 28 satellites for the Starlink mega-constellation - SpaceX's project for space-based Internet communication system.

STARLINK-34018 was lifted into orbit during the mission ‘Falcon 9 Block 5 | Starlink Group 6-93’, on board a Falcon 9 space rocket.

The launch took place on May 7, 2025, 1:17 a.m. from Space Launch Complex 40.

For more information about the launch, click the button.

Launch to space Falcon 9 Block 5 | Starlink Group 6-93
Falcon 9 Block 5 | Starlink Group 6-93

Agency: SpaceX

Status: Launch Successful

Launch date: May 7, 2025, 1:17 a.m. UTC

Rocket: Falcon 9

Launch pad: Space Launch Complex 40

Location: Cape Canaveral SFS, FL, USA

...

Latest news about this satellite

News about space launch
Launch Roundup: SpaceX to launch 250th mission from SLC-40

SpaceX is on course to launch its 250th mission from SLC-40 in Florida this week.… The post Launch Roundup: SpaceX to launch 250th mission from SLC-40 appeared first on NASASpaceFlight.com.

News about space launch
Live coverage: SpaceX to launch 28 Starlink satellites on Falcon 9 rocket from Cape Canaveral

The mission will be SpaceX’s 470th Falcon 9 rocket launch to date. Liftoff from pad 40 at Cape Canaveral Space Force Station is targeting 8:22 p.m. EDT (0022 UTC).

News about space launch
Launch Roundup: Starlink missions fill launch manifest, Biomass and Alpha launch

This week’s schedule includes up to six Starlink launches from Florida and California. Arianespace launched… The post Launch Roundup: Starlink missions fill launch manifest, Biomass and Alpha launch appeared first on NASASpaceFlight.com.


Newsletter sign-up

Weekly statistics, charts and insights to help you stay on top of the space industry.